STARLINK-1142, 45093

Orbit data source: Space-Track

STARLINK-1142, 45093 is a payload satellite owned by SpaceX/Seattle (US) in LEO that was launched on Wed, 29 Jan 2020 UTC via an FALCON 9 launch vehicle from the Air Force Eastern Test Range (AFETR). Payload-class satellites include a variety of spacecraft equipped with specific instruments for various scientific and technological missions. These include communications satellites like Starlink; space stations such as the ISS; scientific satellites like the Hubble; Earth observation satellites from companies like Planet Labs, Umbra, and HawkEye 360; GPS; miniature CubeSats for education and research; and military/defense satellites.

Loading next visibility...
Identifier
45093, 2020-006BB
Orbit
LEO
Country
Flag of USUS
Related business
Manufacturer
SpaceX/Seattle
Mission
Partially operational Commercial Communications
Bus & Motor
STARLINK, Unknown motor
Mass
260 kg wet, ~248 kg dry
Launch date (UTC)
2020-01-29 (6 years ago)
Launch vehicle
FALCON 9
Launch site
Air Force Eastern Test Range (AFETR)
Object type
Payload
Rocket body
Debris
Shape & HBR
Box + 1 Pan, 10.1 m
Radar Cross Section
13.562 m², Large (>1 m²)

Expand to show TLE details & history
Last TLE update: 9 hours ago

TLE from 9 hours ago
0 STARLINK-1142
1 45093U 20006BB  25292.00003472  .00182957  00000-0  24318-2 0  9997
2 45093  53.0336 100.6854 0002398 217.2891   6.1158 15.57080920  5877
Epoch: 2025-10-19T00:00Z
TLE epoch observation values (Epoch: 2025-10-19T00:00:02.999Z)
Latitude
-33.51264°
Longitude
-77.3397°
Altitude
405.006 km
Speed
7.668 km/s
True Right ascension
20h 41m 34s
True Declination
-33° 20' 47"
Sunlit
Object was in daylight at epoch
Visualization orbit readout
Latitude
Unknown
Longitude
Unknown
Altitude
Unknown
Speed
Unknown
Apparent Right ascension
Unknown
Apparent Declination
Unknown
Sunlit
N/A
Visualization observer readout
Local Sidereal Time
03:36:58
Azimuth
Unknown
Elevation
Unknown
Doppler factor
Unknown
Orbital elements
Apogee altitude
398.015 km
Perigee altitude
394.766 km
Semi-major axis
6,774.527 km
Eccentricity
0.00024
Inclination
53.0336°
RAAN
100.6854°
Arg. of periapsis
217.2891°
True anomaly
6.11873°
Mean anomaly
6.1158°
Eccentric anomaly
6.11726°
Mean motion
3.89246 °/min
Orbital period
92.49 mins
BSTAR
0.0024318
Loading maneuver chart data...
Computing Atmospheric mass density...

Documentation

Showing up to 5 results
|